Nome, AK

5:11 PM AKDT on April 24, 2018 (GMT -0800)
Nome

Weather History for PAOM - December, 2013

Change the Weather History Date:

Saturday, December 7, 2013

  Actual Average Record
Temperature  
Mean Temperature 30 °F 11 °F  
Max Temperature 37 °F 18 °F 42 °F (2009)
Min Temperature 23 °F 4 °F -33 °F (1975)
Degree Days  
Heating Degree Days 35 54  
Month to date heating degree days 252 372  
Since 1 July heating degree days 4054 4465  
Cooling Degree Days 0 0  
Month to date cooling degree days 0 0  
Year to date cooling degree days 7 3  
Moisture  
Dew Point 32 °F    
Average Humidity 0    
Maximum Humidity 0    
Minimum Humidity 0    
Precipitation  
Precipitation 0.27 in 0.04 in 0.84 in (1919)
Month to date precipitation 1.43 0.24  
Year to date precipitation 21.75 15.97  
Snow  
Snow 0.10 in 0.40 in 5.60 in (2011)
Month to date snowfall 5.6 2.9  
Since 1 July snowfall 20.2 20.2  
Snow Depth 2.00 in    
Sea Level Pressure  
Sea Level Pressure 30.12 in    
Wind  
Wind Speed 7 mph (SE)    
Max Wind Speed 14 mph    
Max Gust Speed 18 mph    
Visibility 5 miles    
Events Rain , Snow    
T = Trace of Precipitation, MM = Missing Value Source: NWS Daily Summary

Daily Weather History Graph

Daily Weather History Graph

Search for Another Location

Airport or City:

Astronomy

Dec. 07, 2013 Rise Set
Actual Time 11:42 AM AKST 4:04 PM AKST
Civil Twilight 10:24 AM AKST 5:21 PM AKST
Nautical Twilight 9:16 AM AKST 6:30 PM AKST
Astronomical Twilight 8:15 AM AKST 7:30 PM AKST
Moon 1:51 PM AKST (12/7) 11:53 PM AKST (12/7)
Length of Visible Light 6h 57m
Length of Day
4h 22m
Waxing Crescent, 31% of the Moon is Illuminated
Dec 7
Waxing Crescent
Dec 9
First Quarter
Dec 17
Full
Dec 25
Last Quarter
Jan 1
New

Hourly Weather History & Observations

Time (AKST) Temp. Windchill Dew Point Humidity Pressure Visibility Wind Dir Wind Speed Gust Speed Precip Events Conditions
12:09 AM 33.8 °F 28.6 °F 33.8 °F 100% 30.05 in 3.0 mi SE 5.8 mph - 0.01 in Rain Light Rain
12:53 AM 33.1 °F 26.1 °F 33.1 °F 100% 30.06 in 3.0 mi East 8.1 mph - 0.02 in Rain Light Rain
1:00 AM 33.8 °F 27.0 °F 33.8 °F 100% 30.05 in 3.0 mi ESE 8.1 mph - 0.00 in Rain Light Rain
1:14 AM 33.8 °F 27.0 °F 33.8 °F 100% 30.05 in 2.0 mi ESE 8.1 mph - 0.00 in   Overcast
1:23 AM 33.8 °F 27.0 °F 33.8 °F 100% 30.05 in 2.5 mi ESE 8.1 mph - 0.00 in   Overcast
1:32 AM 33.8 °F 27.7 °F 33.8 °F 100% 30.05 in 3.0 mi ESE 6.9 mph - 0.00 in   Overcast
1:53 AM 33.1 °F 26.1 °F 33.1 °F 100% 30.06 in 3.0 mi ESE 8.1 mph - 0.00 in   Overcast
2:00 AM 33.8 °F 26.4 °F 33.8 °F 100% 30.06 in 2.0 mi East 9.2 mph - N/A   Overcast
2:33 AM 33.8 °F 27.0 °F 33.8 °F 100% 30.06 in 3.0 mi East 8.1 mph - 0.01 in   Overcast
2:53 AM 33.1 °F 26.1 °F 33.1 °F 100% 30.06 in 3.0 mi East 8.1 mph - 0.01 in   Overcast
3:11 AM 33.8 °F 27.7 °F 33.8 °F 100% 30.06 in 4.0 mi ESE 6.9 mph - 0.00 in Rain Light Rain
3:25 AM 33.8 °F 27.0 °F 33.8 °F 100% 30.06 in 4.0 mi ESE 8.1 mph - 0.00 in Rain Light Rain
3:38 AM 33.8 °F 27.7 °F 33.8 °F 100% 30.05 in 2.0 mi ESE 6.9 mph - 0.00 in   Overcast
3:49 AM 33.8 °F 27.0 °F 33.8 °F 100% 30.06 in 2.0 mi ESE 8.1 mph - 0.00 in   Overcast
3:53 AM 33.1 °F 26.1 °F 33.1 °F 100% 30.06 in 2.0 mi ESE 8.1 mph - 0.00 in   Overcast
4:40 AM 33.8 °F 26.4 °F 33.8 °F 100% 30.05 in 3.0 mi ESE 9.2 mph - 0.00 in Rain Light Rain
4:53 AM 33.1 °F 25.5 °F 33.1 °F 100% 30.06 in 4.0 mi ESE 9.2 mph - 0.01 in   Overcast
5:24 AM 33.8 °F 27.0 °F 33.8 °F 100% 30.05 in 1.8 mi ESE 8.1 mph - N/A   Overcast
5:44 AM 33.8 °F 27.7 °F 33.8 °F 100% 30.06 in 1.0 mi ESE 6.9 mph - N/A   Mist
5:53 AM 33.1 °F 26.1 °F 33.1 °F 100% 30.06 in 1.2 mi ESE 8.1 mph - N/A   Overcast
6:07 AM 33.8 °F 26.4 °F 33.8 °F 100% 30.05 in 1.5 mi ESE 9.2 mph - N/A   Overcast
6:53 AM 33.1 °F 27.7 °F 33.1 °F 100% 30.05 in 1.5 mi ESE 5.8 mph - N/A   Overcast
7:16 AM - - - N/A% 30.05 in 2.0 mi ESE 4.6 mph - 0.02 in Rain Light Rain
7:27 AM - - - N/A% 30.04 in 3.0 mi East 6.9 mph - 0.04 in Rain Light Rain
7:53 AM 36.0 °F 30.3 °F 35.1 °F 97% 30.04 in 3.0 mi East 6.9 mph - 0.07 in Rain Light Rain
8:53 AM 34.0 °F 28.0 °F 34.0 °F 100% 30.03 in 8.0 mi South 6.9 mph - 0.09 in Rain Light Rain
9:12 AM 33.8 °F 27.7 °F 33.8 °F 100% 30.03 in 6.0 mi South 6.9 mph - 0.02 in Rain Light Rain
9:40 AM 33.8 °F 27.7 °F 33.8 °F 100% 30.04 in 3.0 mi South 6.9 mph - 0.04 in Snow Light Snow
9:53 AM 34.0 °F 28.0 °F 33.1 °F 96% 30.04 in 4.0 mi South 6.9 mph - 0.05 in Snow Light Snow
10:53 AM 32.0 °F 25.6 °F 32.0 °F 100% 30.06 in 4.0 mi SSW 6.9 mph - 0.01 in Snow Light Snow
11:51 AM 33.8 °F 27.7 °F 32.0 °F 93% 30.07 in 4.0 mi West 6.9 mph - 0.01 in Snow Light Snow
11:53 AM 33.1 °F 26.1 °F 32.0 °F 96% 30.07 in 4.0 mi WNW 8.1 mph - 0.01 in Snow Light Snow
12:53 PM 32.0 °F 22.5 °F 30.0 °F 92% 30.12 in 10.0 mi WNW 12.7 mph - 0.00 in   Overcast
1:53 PM 32.0 °F 23.6 °F 30.0 °F 92% 30.16 in 10.0 mi WNW 10.4 mph - N/A   Overcast
2:53 PM 30.9 °F 24.3 °F 30.9 °F 100% 30.19 in 10.0 mi NNW 6.9 mph - N/A   Mostly Cloudy
3:53 PM 30.0 °F 23.2 °F 30.0 °F 100% 30.20 in 10.0 mi West 6.9 mph - N/A   Mostly Cloudy
4:53 PM 28.9 °F 21.1 °F 28.9 °F 100% 30.23 in 10.0 mi WNW 8.1 mph - N/A   Overcast
5:16 PM 30.2 °F 23.4 °F 30.2 °F 100% 30.24 in 10.0 mi WNW 6.9 mph - N/A   Overcast
5:53 PM 30.9 °F 24.3 °F 30.0 °F 96% 30.25 in 10.0 mi WNW 6.9 mph - N/A   Overcast
6:53 PM 30.0 °F 21.7 °F 28.9 °F 96% 30.28 in 10.0 mi WNW 9.2 mph - N/A   Overcast
7:32 PM 28.4 °F 18.5 °F 28.4 °F 100% 30.29 in 10.0 mi West 11.5 mph - N/A   Scattered Clouds
7:53 PM 28.9 °F 21.9 °F 27.0 °F 92% 30.30 in 10.0 mi WNW 6.9 mph - N/A   Scattered Clouds
8:53 PM 28.0 °F 19.3 °F 26.1 °F 92% 30.31 in 10.0 mi West 9.2 mph - N/A   Partly Cloudy
9:53 PM 26.1 °F 18.4 °F 24.1 °F 92% 30.33 in 10.0 mi West 6.9 mph - N/A   Partly Cloudy
10:53 PM 24.1 °F 18.2 °F 23.0 °F 96% 30.33 in 10.0 mi WNW 4.6 mph - N/A   Partly Cloudy
11:53 PM 24.1 °F - 21.9 °F 91% 30.34 in 10.0 mi Calm Calm - N/A   Partly Cloudy